Location: Unspecified
(43.4680°N, 87.1740°E)
Time: 20:25:41
(UTC+00:00)

FALCON 9 DEB - Pass Details

Date: 17 April 2021
Orbit: 364 x 384 km, 53.0° (Epoch: 12 May)

Event Time Altitude Azimuth Distance (km) Brightness Sun altitude
Rises 22:51:56 0° 299° (WNW) 2,230 6.3 -6.4°
Reaches altitude 10° 22:54:03 10° 290° (WNW) 1,381 5.2 -6.0°
Maximum altitude 22:56:54 35° 223° (SW) 632 3.5 -5.5°
Drops below altitude 10° 22:59:46 10° 155° (SSE) 1,384 5.8 -5.1°
Sets 23:01:54 0° 146° (SE) 2,236 6.9 -4.7°
